www.pogodaiklimat.ru

Погода и климат >> Архив погоды >> Канада >> Северо-Западные территории >> Моулд Бэй


ПОГОДА в Моулд Бэй

  • Прогноз погоды в Моулд Бэй
  • Монитор погоды в Моулд Бэй

АРХИВ ПОГОДЫ в Моулд Бэй

Время (UTC), дата Ветер
(напр.,м/с)
 
Видим.   Явления Облачность Т
(С)
Тd
(С)
f
(%)
Тe
(С)
Тes
(С)
Комфортность P
(гПа)
Po
(гПа)
Тmin
(С)
Tmax
(С)
R
(мм)
R24
(мм)
S
(см)
18 18.05 СВ 3 н/о н/о -10.2 -14.2 72 -16 -16 1037.3 1035.6 -13.5 -9.0
21 18.05 В 3 н/о н/о -9.1 -14.8 63 -14 -14 1037.5 1035.8 0.2
00 19.05 В 4 н/о н/о -9.0 -13.4 70 -15 -15 1037.1 1035.4 -13.5 -8.1 0.2
03 19.05 СВ 3 н/о н/о -10.9 -13.8 79 -16 -16 1036.7 1035.0
06 19.05 В 3 н/о н/о -12.3 -15.5 77 -18 -18 1036.7 1035.0 -13.5 -8.1
09 19.05 СВ 3 н/о н/о -14.3 -16.9 81 -20 -20 1036.7 1035.0
12 19.05 З 2 н/о н/о -15.9 -18.4 81 -20 -20 1036.6 1034.9 -17.5 -8.1
15 19.05 З 2 н/о н/о -11.1 -15.1 72 -15 -15 1036.5 1034.8
18 19.05 З 1 н/о н/о -8.7 -14.4 63 -11 -11 1036.1 1034.4 -17.5 -6.3
21 19.05 СЗ 3 н/о н/о -5.7 -11.0 66 -10 -10 1035.7 1034.0
00 20.05 СЗ 2 н/о н/о -4.1 -9.8 64 -7 -7 1035.7 1034.0 -17.5 -2.5
03 20.05 З 1 н/о н/о -5.6 -10.6 68 -8 -8 1035.7 1034.0
06 20.05 СВ 1 н/о н/о -10.1 -13.9 74 -12 -12 1036.0 1034.3 -17.5 -2.5
09 20.05 СВ 3 н/о н/о -13.6 -16.6 78 -19 -19 1036.3 1034.6
12 20.05 н/о н/о -14.0 -16.5 81 1036.7 1035.0 -14.5 -2.5
15 20.05 СВ 2 н/о н/о -9.0 -13.5 70 -13 -13 1036.6 1034.9
18 20.05 СВ 1 н/о н/о -5.1 -11.7 60 -5 -5 1036.6 1034.9 -14.5 -4.1
21 20.05 СЗ 3 н/о н/о -2.9 -6.6 76 -8 -8 1036.6 1034.9
00 21.05 С 4 н/о н/о -2.9 -6.2 78 -9 -9 1036.6 1034.9 -14.5 -0.2
03 21.05 СЗ 3 н/о н/о -5.0 -7.7 81 -11 -11 1036.6 1034.9
06 21.05 В 2 н/о н/о -8.1 -10.4 83 -13 -13 1036.9 1035.2 -14.5 -0.2
09 21.05 СЗ 2 н/о н/о -8.6 -10.4 87 -13 -13 1037.3 1035.7
12 21.05 СВ 2 н/о н/о -12.2 -14.8 81 -16 -16 1037.8 1036.1 -12.7 -0.2
15 21.05 С 1 н/о н/о -7.5 -10.2 81 -10 -10 1038.2 1036.5
18 21.05 ЮВ 1 н/о н/о -4.1 -9.4 67 -4 -4 1038.4 1036.7 -12.7 -4.0
21 21.05 СВ 2 н/о н/о -3.6 -9.1 66 -7 -7 1038.6 1036.9
00 22.05 С 2 н/о н/о -4.5 -9.7 67 -8 -8 1038.8 1037.1 -12.7 -2.0
03 22.05 С 1 н/о н/о -6.0 -11.3 66 -8 -8 1038.6 1036.9
06 22.05 СВ 2 н/о н/о -11.7 -14.3 81 -15 -15 1038.6 1036.9 -12.7 -2.0
09 22.05 В 1 н/о н/о -12.9 -15.2 83 -15 -15 1038.5 1036.8
12 22.05 СВ 2 н/о н/о -14.6 -17.3 80 -19 -19 1038.7 1037.0 -15.2 -2.0
15 22.05 В 1 н/о н/о -10.2 -14.8 69 -12 -12 1038.3 1036.6
18 22.05 В 1 н/о н/о -5.2 -12.0 59 -7 -7 1037.4 1035.7 -15.2 -3.5
21 22.05 штиль 0 н/о н/о -0.9 -9.2 53 -1 -1 1037.1 1035.4
00 23.05 штиль 0 н/о н/о -2.0 -10.3 53 -2 -2 1036.4 1034.7 -15.2 +0.2
03 23.05 штиль 0 н/о н/о -4.7 -10.3 65 -5 -5 1035.6 1033.9
06 23.05 СВ 3 н/о н/о -10.3 -13.9 75 -16 -16 1034.8 1033.1 -15.2 +0.2
09 23.05 СВ 1 н/о н/о -13.5 -16.6 77 -16 -16 1034.2 1032.6
12 23.05 С 1 н/о н/о -12.1 -14.7 81 -12 -12 1033.6 1032.0 -13.7 +0.2
15 23.05 З 1 н/о н/о -8.3 -13.9 64 -9 -9 1032.8 1031.2
18 23.05 Ю 1 н/о н/о -5.6 -9.5 74 -8 -8 1031.4 1029.8 -13.7 -5.1
21 23.05 ЮЗ 1 н/о н/о -2.5 -8.7 62 -3 -3 1030.5 1028.9
00 24.05 Ю 2 н/о н/о -3.5 -7.3 75 -7 -7 1029.7 1028.1 -13.7 -0.9
03 24.05 Ю 2 н/о н/о -5.4 -9.0 76 -9 -9 1028.4 1026.8
06 24.05 Ю 1 н/о н/о -7.4 -9.1 88 -10 -10 1027.6 1026.0 -13.7 -0.9
09 24.05 В 1 н/о н/о -9.1 -11.0 86 -12 -12 1027.1 1025.5
12 24.05 Ю 5 н/о н/о -7.1 -8.4 90 -14 -14 1026.7 1025.1 -10.3 -0.9
15 24.05 Ю 4 н/о н/о -6.0 -8.2 84 -13 -13 1025.6 1024.0
18 24.05 Ю 5 н/о н/о -4.2 -6.4 85 -11 -11 1024.6 1023.0 -10.3 -3.6
21 24.05 Ю 6 н/о н/о -3.3 -5.6 84 -11 -11 1023.7 1022.1
00 25.05 Ю 6 н/о н/о -2.9 -5.0 85 -10 -10 1023.0 1021.4 -10.3 -2.6
03 25.05 Ю 5 н/о н/о -3.3 -4.9 89 -10 -10 1021.6 1020.0
06 25.05 Ю 6 н/о н/о -3.8 -5.5 88 -11 -11 1020.2 1018.6 -10.3 -2.6 22
09 25.05 Ю 4 н/о н/о -5.1 -6.7 89 -12 -12 1018.8 1017.2
12 25.05 Ю 4 н/о н/о -5.3 -7.4 85 -12 -12 1017.0 1015.4 -6.0 -2.6
15 25.05 ЮВ 5 н/о н/о -3.0 -6.5 77 -10 -10 1014.3 1012.7

 

Местоположение метеостанции Моулд Бэй (Северо-Западные территории, Канада): широта 76.23 долгота -119.30 высота над уровнем моря 12 м.

В архиве по умолчанию представлена погода в Моулд Бэй за последнюю неделю. Архивные данные за месяц целиком и за предыдущие месяцы, начиная с января 2011 года, Вы можете получить, выбрав интересующий диапазон дат из раскрывающегося списка и нажав кнопку "Ввод!".


*Определитесь, кто Вы:
робот инопланетянин человек

Внимание! Время в таблицах - всемирное. Для получения местного времени необходимо прибавить поправку, которая равна -7 ч.

Смотрите также архив погоды в соседних городах и на ближайших метеорологических станциях:

Погода в Национальном парке Олавик (Северо-Западные территории, Канада) (234 км)
Погода в Исачсене (Нунавут, Канада) (472 км)
Погода на Острове Стефанссон (Нунавут, Канада) (488 км)
Погода в Сачс Харбор (Северо-Западные территории, Канада) (503 км)
Погода в Маниберрисе (Альберта, Канада) (504 км)
Погода в Сарнии (Онтарио, Канада) (534 км)
Погода в Аэропорту Холман (Северо-Западные территории, Канада) (611 км)
Погода в Ресольют Бэй (Нунавут, Канада) (693 км)
Погода в Аэропорту Ресольют Бэй (Нунавут, Канада) (694 км)
Погода на Кабо-Парри (Северо-Западные территории, Канада) (695 км)

Пояснения к столбцам:

Ветер - указаны скорость ветра в м/с - средняя за 10 мин, порывы в срок и между сроками (в фигурных скобках) и направление, откуда дует ветер: С - северный, СВ - северо-восточный, В - восточный, ЮВ - юго-восточный, Ю - южный, ЮЗ - юго-западный, З - западный, СЗ - северо-западный.
Видимость - горизонтальная дальность видимости в метрах или километрах. При видимости от 1 до 10 км при отсутствии осадков обычно наблюдается дымка, при ухудшении видимости до 1 км и менее - туман. В сухую погоду видимость может ухудшаться дымом, пылью или мглою.
Явления - указаны атмосферные явления, наблюдавшиеся в срок или в последний час перед сроком; фигурными скобками обозначены явления, наблюдавшиеся между сроками (за 1-3 часа до срока); квадратными скобками обозначены град или гололедные отложения с указанием их диаметра в мм.
Облачность - указаны через наклонную черту общая и нижняя облачность в баллах и высота нижней границы облаков в метрах; квадратными скобками обозначены формы облаков: Ci - перистые, Cs - перисто-слоистые, Cc - перисто-кучевые, Ac - высококучевые, As - высокослоистые, Sc - слоисто-кучевые, Ns - слоисто-дождевые, Cu - кучевые, Cb - кучево-дождевые. Подробнее классификацию облаков см. в Атласе облаков (PDF).
T - Температура воздуха - температура, измеренная на высоте 2 м над землей.
Td - Температура точки росы - температура, при понижении до которой содержащийся в воздухе водяной пар достигнет насыщения.
f - Относительная влажность воздуха - влажноcть воздуха, измеренная на высоте 2 м над землей.
Te - Эффективная температура - температура, которую ощущает одетый по сезону человек в тени. Характеристика душности погоды. При расчете учитывается влияние влажности воздуха и скорости ветра на теплоощущения человека.
Tes - Эффективная температура на солнце - температура, которую ощущает человек, с поправкой на солнечный нагрев. Характеристика знойности погоды. Зависит от высоты солнца над горизонтом, облачности и скорости ветра. Ночью, в пасмурную погоду, а также при ветре 12 м/с и более поправка равна нулю.
P - Атмосферное давление - приведенное к уровню моря атмосферное давление.
Po - Атмосферное давление - измеренное на уровне метеостанции атмосферное давление.
Tmin - Минимальная температура - минимум температуры воздуха на высоте 2 м над землей.
Tmax - Максимальная температура - максимум температуры воздуха на высоте 2 м над землей.
R - Количество осадков - Количество выпавших осадков за период времени, мм. При наведении курсора мыши на число - период времени, за который выпало указанное количество осадков.
R24 - Количество осадков - Количество выпавших осадков за 24 часа, мм.
S - Снежный покров - Высота снежного покрова, см. При наведении курсора мыши на число - состояние снежного покрова и степень покрытия местности в баллах.